GFSMA_2pvu_pres_087.txt.gz
Presure
87 133 125 127 87 126 128 151 143 122 151 150 146 155 157 156 144 142 143 147 148 142 148 165 163 158 162 169 170 159 135 178 169 175 173 173 164 135 193 178 164 188 203
88 83 84 108 145 125 144 158 141 143 135 131 162 157 159 143 143 146 142 147 141 149 161 167 164 164 167 170 171 183 183 193 157 177 194 162 185 190 129 135 189 191 187
86 90 103 132 138 133 130 162 165 163 133 144 139 139 149 151 152 145 153 159 167 162 155 163 169 169 169 182 171 156 192 136 185 169 159 146 179 202 210 152 180 194 203
158 183 178 147 148 128 128 134 131 129 135 139 168 145 150 168 166 160 164 165 156 169 158 164 163 173 182 164 176 160 172 127 143 190 190 187 181 196 211 152 158 149 207
174 184 165 166 167 164 166 162 162 150 167 159 153 153 162 161 153 170 172 169 171 153 169 128 181 165 159 173 128 120 195 179 125 167 188 126 194 212 200 188 162 201 208
183 166 170 181 175 176 168 175 159 169 163 154 165 164 151 163 172 172 160 162 165 172 179 162 177 174 155 171 164 124 180 164 195 122 161 190 173 125 199 198 129 191 215
154 159 171 169 174 148 187 168 176 154 181 182 169 167 159 177 152 177 168 158 170 175 157 169 161 174 177 186 176 174 195 158 184 163 174 184 202 119 192 196 208 201 228
153 156 152 166 159 169 176 172 199 168 179 175 161 172 185 160 176 173 176 178 161 160 174 173 172 176 178 132 165 194 178 192 176 175 181 192 191 196 192 196 207 215 236
160 169 162 159 167 143 160 196 173 164 163 141 151 162 168 161 139 168 175 155 160 176 169 171 129 177 175 160 185 185 165 174 136 153 187 179 184 174 195 202 202 236 288
163 160 164 161 164 161 171 157 157 169 160 170 178 170 163 142 170 162 174 176 181 156 178 166 157 170 175 152 164 184 179 104 179 189 195 201 187 189 199 208 215 238 244
167 149 167 161 172 170 173 171 188 177 168 176 170 161 165 159 166 163 172 166 181 165 144 138 153 177 190 181 189 155 181 192 124 184 209 130 183 193 207 207 225 242 246
178 175 184 161 172 177 181 178 175 171 179 164 171 166 151 180 186 158 153 158 158 153 181 186 155 185 168 170 193 190 203 199 196 190 165 189 201 199 208 221 252 238 276
189 191 197 200 188 184 166 172 151 164 170 198 181 177 174 189 174 184 144 133 159 204 154 164 187 189 173 198 202 208 178 179 181 178 186 199 202 214 218 246 264 237 267
193 193 210 125 179 136 162 134 142 166 173 161 155 183 159 180 132 180 171 139 184 157 187 168 194 147 166 162 179 181 180 181 180 184 198 209 206 212 236 243 239 261 261
184 208 201 203 208 227 206 216 153 158 151 203 177 130 193 206 186 152 163 202 161 169 169 169 198 170 206 172 173 175 186 176 196 212 207 213 216 228 245 269 245 265 263
192 188 168 194 171 139 206 206 207 211 185 211 215 172 204 201 207 211 209 189 166 193 169 190 180 185 172 179 187 166 209 216 223 206 209 215 228 254 199 256 240 255 255
171 166 185 153 174 169 212 141 202 211 170 179 165 200 213 190 169 193 188 180 181 180 184 185 187 227 219 215 223 213 167 234 218 214 220 231 246 255 251 262 239 260 249
182 179 181 180 194 172 195 193 174 176 210 172 170 226 220 227 178 204 203 182 232 246 237 237 234 219 217 221 215 219 139 214 223 235 233 251 258 260 241 243 257 255 252
187 190 189 186 183 168 171 181 192 167 177 171 171 174 172 182 187 206 199 202 207 218 222 218 221 165 191 224 227 231 233 240 240 251 249 265 233 262 272 261 250 229 243
188 171 175 176 177 178 186 159 189 180 180 181 187 205 193 201 205 210 215 221 225 232 231 231 233 235 236 254 248 248 252 262 263 266 258 265 236 247 232 237 243 239 242
210 213 192 193 205 196 196 192 193 189 190 174 199 203 207 214 221 225 234 237 236 242 242 246 259 264 266 258 266 265 250 272 257 286 290 287 249 248 248 253 237 237 239
203 204 203 202 201 200 199 206 205 200 214 233 247 229 231 235 237 240 243 244 243 282 288 287 323 335 325 273 291 252 313 263 295 242 278 238 259 262 250 246 243 229 231
217 214 214 214 213 214 216 203 219 224 228 232 237 243 244 244 260 276 289 315 313 303 302 299 297 298 315 314 281 243 259 266 285 278 257 246 256 251 253 241 237 234 230
282 281 279 253 253 252 257 265 269 273 276 287 298 319 298 289 285 308 299 288 285 266 267 283 243 262 260 251 259 262 262 254 262 271 266 252 250 256 240 234 235 228 229
294 293 307 310 314 315 301 297 313 277 277 260 246 261 320 346 261 283 306 301 279 273 267 277 243 278 284 287 284 293 292 262 271 259 244 247 252 244 240 235 228 230 227
262 269 298 296 277 253 252 255 257 262 270 295 303 309 321 296 326 317 327 324 324 307 307 280 267 268 272 266 262 273 276 244 260 249 239 261 248 231 229 229 230 228 231

GFSMA_2pvu_pres_090.txt.gz
Presure
190 78 81 112 144 83 138 90 169 134 153 123 147 169 160 163 132 145 157 161 161 123 150 163 163 161 160 161 174 174 166 179 162 164 142 178 180 192 174 141 144 185 199
106 112 87 83 124 84 87 125 144 125 135 131 132 134 131 134 139 142 146 151 154 154 158 167 164 166 160 170 177 131 154 155 153 150 142 181 169 127 185 161 153 169 196
184 191 178 157 90 164 142 143 166 173 173 154 162 161 153 158 158 153 151 161 170 159 164 164 174 156 174 175 163 150 174 171 139 124 171 191 146 177 126 193 190 176 184
131 144 171 173 198 198 183 179 184 167 163 170 175 168 166 174 180 182 181 174 156 168 173 181 171 158 163 175 168 181 164 172 128 163 154 179 132 169 175 180 181 209 185
176 173 161 181 145 168 166 160 192 173 167 166 180 146 179 162 177 181 173 174 152 160 166 164 152 164 169 167 178 181 180 134 110 158 172 170 156 182 193 201 183 198 184
157 172 195 176 183 153 152 184 146 174 159 152 159 166 173 182 162 183 153 160 152 172 159 150 165 201 177 178 167 147 158 172 150 140 199 188 196 172 208 176 180 191 181
179 148 167 157 164 157 166 197 154 171 164 178 166 150 170 156 140 158 142 156 168 154 187 156 170 156 161 167 174 196 128 149 195 190 192 192 186 193 182 185 168 193 201
170 170 156 167 166 167 176 180 150 181 150 163 168 162 159 173 151 160 195 158 174 165 158 160 158 185 175 155 152 168 173 153 185 186 197 191 178 195 194 183 187 184 214
168 154 166 150 166 169 178 169 195 170 165 175 166 163 178 184 181 183 172 165 175 192 171 164 172 194 166 185 182 190 145 180 194 199 172 145 139 177 180 167 191 204 235
182 177 170 201 174 184 185 180 184 186 173 177 183 168 179 152 180 171 153 166 168 176 170 173 179 178 147 135 192 165 201 205 171 163 172 126 175 176 176 185 213 226 225
170 191 175 183 181 168 169 174 177 148 182 175 182 180 170 182 220 195 197 169 197 178 180 119 183 176 159 128 178 162 170 201 166 169 225 174 180 192 186 228 177 207 223
144 168 170 183 179 159 168 178 177 186 175 175 187 140 191 177 168 188 182 140 163 146 200 213 193 153 173 207 163 191 196 219 139 176 172 187 222 216 238 226 214 222 223
176 180 154 169 177 164 178 142 150 153 122 171 190 150 127 177 214 177 213 168 178 134 207 159 210 203 208 182 172 182 180 190 210 216 230 236 232 220 216 216 214 222 240
165 161 179 181 164 159 167 157 166 180 161 189 151 156 167 207 189 189 198 189 209 142 190 209 205 169 187 221 183 225 173 223 212 240 230 222 215 217 220 219 228 233 245
180 180 155 171 143 190 170 164 172 178 157 188 179 182 105 172 170 176 159 178 184 173 170 200 217 176 205 187 182 170 194 192 202 213 214 206 217 220 227 235 143 241 240
165 179 182 160 164 165 148 180 169 179 173 175 180 178 157 180 169 172 180 181 195 212 185 170 187 173 172 179 195 195 200 209 219 224 222 226 231 213 190 177 250 252 249
184 179 186 192 212 170 182 163 188 196 180 159 202 169 172 168 206 176 187 208 195 200 199 173 154 184 154 189 193 204 195 222 226 232 227 241 248 245 241 287 278 243 264
145 170 154 162 184 182 194 208 201 192 210 191 166 190 174 188 185 185 203 208 189 163 175 196 185 199 206 233 214 219 227 230 241 260 259 261 253 245 252 265 275 235 262
187 184 203 179 162 169 195 211 196 201 202 189 200 200 187 208 213 166 224 188 153 224 205 203 218 213 251 222 230 245 239 256 260 263 259 276 256 292 275 234 259 270 229
156 178 181 183 189 211 187 145 170 209 201 194 196 210 173 211 211 173 181 211 219 229 243 212 224 231 245 249 251 262 295 280 295 277 280 294 297 277 290 260 270 232 250
189 190 198 185 191 202 210 212 194 208 192 198 205 194 232 228 203 228 226 212 217 215 226 249 260 249 262 287 289 294 300 295 267 314 301 289 271 275 275 240 259 257 246
179 200 206 216 212 206 211 210 212 210 213 229 222 185 206 222 219 168 208 235 240 265 262 278 296 298 275 298 266 277 278 277 275 269 295 284 282 263 283 276 258 253 243
221 215 208 222 225 228 236 247 240 227 225 210 215 224 220 231 229 256 303 295 294 290 278 244 267 295 299 277 288 274 242 300 278 278 259 258 290 255 263 270 261 250 249
284 280 279 278 272 271 263 261 248 245 235 236 239 252 304 313 294 288 294 276 264 263 293 327 323 339 316 274 292 267 280 252 281 277 287 280 276 259 263 262 254 246 238
271 265 306 304 297 278 303 298 322 315 288 286 311 294 285 275 276 256 262 267 332 313 323 329 319 336 309 305 312 303 272 267 277 261 283 281 276 262 259 260 227 233 244
256 255 260 260 265 268 295 261 267 272 276 254 264 318 314 275 297 278 283 303 310 310 307 330 311 304 292 285 307 296 289 273 250 260 258 275 264 240 263 254 231 253 240

GFSMA_2pvu_pres_093.txt.gz
Presure
122 75 77 132 116 154 80 82 160 139 131 149 137 133 160 174 167 160 155 159 179 168 160 161 161 169 167 163 156 163 155 179 180 171 181 180 162 157 144 195 177 144 191
146 194 186 73 178 182 189 191 153 182 128 168 166 187 177 182 188 165 168 162 151 170 189 172 175 168 167 176 155 183 172 170 163 168 174 209 171 148 143 167 187 185 187
163 84 85 186 176 144 165 191 169 168 179 169 163 167 166 159 167 159 152 151 180 156 162 164 167 144 160 184 158 151 176 155 163 172 186 187 180 167 176 184 224 177 185
94 96 159 123 153 127 121 140 152 148 140 146 159 172 174 155 167 162 161 157 161 157 167 182 134 157 156 177 163 194 180 196 180 165 145 119 181 206 185 177 193 211 182
140 127 138 163 154 185 151 152 159 195 166 170 157 174 139 167 160 143 150 154 156 156 141 155 187 165 170 179 172 186 165 183 153 174 176 224 168 180 185 169 250 216 200
162 171 156 154 185 157 158 158 165 162 155 166 167 170 172 158 171 181 171 161 181 174 167 157 189 158 172 161 190 177 173 179 206 135 206 170 159 169 170 182 166 179 127
162 172 182 163 119 112 159 190 174 205 171 169 149 160 173 158 173 182 166 160 176 174 172 200 158 165 187 161 192 194 183 203 145 133 173 206 205 200 163 183 223 210 234
125 170 189 179 148 143 174 209 145 181 162 176 177 167 166 167 155 171 176 177 204 156 190 219 180 179 215 211 195 177 132 210 152 145 203 202 182 180 199 216 209 233 241
138 170 168 166 152 186 194 185 156 182 180 182 162 184 182 171 148 164 167 183 146 181 194 154 159 217 151 181 150 192 198 182 207 203 201 191 202 182 199 223 207 208 186
152 195 157 198 169 179 181 188 170 180 144 185 165 144 155 165 158 153 192 156 140 192 195 137 186 191 185 195 136 157 187 180 186 193 195 197 181 189 204 202 200 216 222
174 168 162 177 152 159 146 176 132 189 211 160 180 169 186 175 188 158 175 166 172 128 178 225 136 177 180 166 167 174 169 213 198 192 215 176 194 210 200 196 212 224 220
143 164 168 162 169 195 160 197 179 148 202 191 197 142 166 179 155 164 139 152 144 157 212 191 149 172 181 197 185 166 182 167 189 173 190 178 190 186 194 202 225 224 226
175 178 176 171 187 170 182 172 190 161 172 161 195 174 175 179 180 127 175 143 130 177 193 161 202 176 193 152 168 179 175 202 182 215 181 197 210 214 233 223 222 224 233
171 178 164 161 190 157 180 181 139 193 148 183 173 158 179 209 174 163 177 218 161 204 187 173 178 202 206 163 166 204 202 219 179 184 193 206 209 184 218 219 230 236 247
168 159 172 169 168 155 165 178 171 144 173 181 205 151 165 186 190 178 199 173 166 187 183 171 194 208 177 205 184 186 204 190 218 200 213 208 212 235 218 236 242 251 249
163 163 169 171 170 171 172 176 167 177 172 182 165 172 188 175 184 178 164 204 177 190 166 200 187 213 193 195 209 206 192 154 219 202 210 216 220 227 240 254 260 271 251
157 159 171 160 166 177 177 168 180 163 175 171 171 154 193 179 176 194 160 180 191 184 208 210 206 193 213 181 212 212 211 254 227 215 223 236 248 251 267 270 280 262 288
169 197 175 177 170 176 138 182 181 167 150 176 176 180 174 169 146 210 184 194 183 201 200 201 221 223 193 220 222 197 234 226 232 257 251 242 270 282 277 263 296 298 278
171 154 164 185 134 173 164 180 153 170 173 169 195 150 157 175 227 199 207 194 211 197 225 212 202 213 221 221 231 234 247 262 278 277 292 286 277 234 247 295 258 281 287
182 174 156 157 183 191 180 188 177 175 192 197 169 176 209 198 192 185 209 197 217 213 225 186 222 238 222 246 250 296 278 298 303 265 249 237 287 247 303 304 291 289 247
208 214 190 223 179 217 217 181 179 204 191 193 194 192 178 218 210 203 211 213 223 236 219 236 249 256 251 367 353 341 336 266 250 263 282 291 292 255 243 265 273 303 281
210 185 192 184 203 200 209 210 215 211 208 192 201 202 208 193 212 207 235 221 229 240 263 266 256 290 293 276 336 251 346 345 318 276 284 265 264 277 278 284 308 268 285
220 219 219 211 199 194 198 203 202 203 214 221 216 211 203 203 228 239 200 254 275 275 214 286 231 281 328 327 341 332 317 317 327 291 276 279 266 273 262 245 262 271 270
210 210 212 209 221 211 219 207 204 213 211 215 216 232 176 274 236 299 299 266 289 271 274 267 298 314 327 330 331 327 330 312 301 309 274 257 277 275 256 276 272 275 260
215 215 217 222 220 216 225 206 199 261 283 313 283 289 284 276 278 273 282 241 275 305 266 305 309 294 304 325 317 311 319 301 297 293 302 272 258 273 264 266 267 257 260
270 291 308 268 268 299 298 317 307 280 280 283 286 299 279 282 277 296 266 273 303 273 287 293 293 293 292 306 312 299 299 302 296 299 281 272 267 278 250 261 256 254 240

GFSMA_2pvu_pres_099.txt.gz
Presure
157 128 97 96 100 93 100 98 90 103 80 140 125 158 139 136 171 190 167 178 183 145 139 149 145 151 155 166 176 133 171 171 160 174 163 165 197 174 173 181 182 210 198
117 125 159 110 76 174 163 116 157 164 86 120 145 121 140 153 162 126 125 150 144 149 137 169 157 158 198 161 173 163 140 169 173 168 175 171 207 171 164 188 158 177 178
169 177 132 108 147 153 170 137 172 165 164 104 153 154 139 123 132 133 155 156 161 164 182 154 170 155 141 149 145 177 160 178 151 156 179 158 161 165 150 168 184 184 211
157 124 128 147 85 135 169 74 71 160 161 150 174 152 102 155 157 152 138 202 183 159 136 176 151 168 176 158 160 156 169 162 162 153 177 216 186 164 158 162 162 171 142
135 124 172 86 72 107 157 143 177 180 171 156 150 151 173 150 153 176 150 158 184 155 142 136 194 144 165 182 171 164 164 200 165 170 183 176 197 201 187 175 175 187 188
178 147 141 126 171 144 167 145 165 127 152 163 132 120 180 171 177 162 134 168 195 167 153 200 180 178 155 185 178 173 164 170 163 192 170 140 155 178 210 153 189 183 144
169 158 156 152 138 168 159 153 168 174 157 179 164 128 186 165 165 140 164 190 185 172 176 168 207 175 200 168 196 224 156 178 155 139 202 175 155 172 199 138 193 135 164
172 193 168 158 185 145 173 137 189 173 123 162 188 169 187 161 170 153 131 170 171 166 176 167 135 170 178 190 139 175 150 136 128 161 181 154 167 149 165 176 151 159 198
179 153 166 158 179 140 162 156 174 156 159 164 171 140 173 162 153 180 175 189 186 176 149 181 160 170 188 152 200 174 164 145 207 140 162 129 153 143 180 188 144 169 207
151 176 164 163 168 190 161 142 167 151 156 155 179 193 136 167 131 145 183 216 183 159 142 156 181 138 190 191 176 178 197 125 194 175 186 162 169 182 130 136 203 203 220
172 163 177 166 194 168 152 166 138 168 180 172 151 146 119 186 141 154 194 192 171 202 201 200 153 197 159 159 199 132 177 195 141 180 124 172 182 195 232 198 199 216 214
183 174 172 170 167 132 144 163 153 178 136 161 173 172 173 181 199 215 144 163 149 175 135 157 163 184 161 210 194 198 217 167 158 171 179 181 197 190 194 207 224 227 257
158 161 161 191 183 174 185 192 163 163 179 175 179 159 150 172 145 182 132 137 196 177 163 140 141 155 202 169 144 182 180 194 176 179 194 202 186 187 204 218 222 273 269
181 154 184 194 178 195 179 179 161 175 144 164 185 149 148 169 171 157 197 194 135 187 193 200 164 195 189 137 177 159 206 157 178 172 190 214 238 203 243 230 278 265 261
160 163 194 160 167 189 188 181 178 149 174 156 172 167 155 172 183 183 179 193 198 211 153 141 187 192 179 201 171 209 183 171 192 198 183 193 207 184 238 293 269 261 265
184 193 189 185 183 197 196 184 150 161 168 183 182 169 179 175 148 165 179 150 177 160 184 184 169 177 218 165 162 199 176 201 170 188 197 227 237 231 291 236 326 287 255
158 185 185 173 169 179 178 184 181 175 168 159 181 181 194 162 169 192 191 172 175 129 161 187 164 197 181 191 198 192 208 200 188 198 206 242 242 266 309 280 282 265 282
203 200 154 193 191 189 174 174 186 190 187 153 185 175 158 177 198 177 166 168 213 156 170 176 191 170 194 185 193 179 188 210 223 248 228 255 258 282 322 263 331 288 307
206 177 185 190 189 190 160 175 180 189 173 163 175 155 175 162 150 201 199 191 188 183 198 190 186 199 185 177 199 196 199 216 221 229 235 292 225 331 364 356 337 336 312
188 181 195 211 208 194 182 188 182 186 161 147 172 172 184 169 170 179 185 191 200 193 194 209 196 203 211 190 193 212 213 228 234 245 283 206 316 357 365 337 345 317 294
195 187 192 200 186 188 191 190 182 197 191 199 173 178 192 194 187 184 183 183 195 217 192 213 194 196 205 188 223 226 226 214 254 285 278 269 339 344 355 337 321 309 288
211 197 155 184 161 156 185 196 198 210 206 199 199 178 194 183 219 222 165 192 193 168 198 198 199 206 224 214 228 252 245 274 296 323 328 329 332 323 327 332 312 300 286
203 179 206 214 199 197 211 215 185 196 198 205 198 209 194 193 199 221 207 208 225 200 217 216 225 230 219 235 228 245 278 303 300 317 320 314 332 341 322 300 301 302 284
216 214 209 210 203 209 205 210 206 202 213 219 217 200 213 211 234 212 214 214 225 225 214 210 233 222 223 254 263 311 306 274 318 309 308 313 320 327 306 298 289 282 267
228 220 222 233 220 218 245 231 212 224 222 225 224 225 216 231 206 223 220 231 232 220 220 229 228 260 284 299 303 278 279 317 307 297 297 301 309 311 292 296 289 278 271
203 205 215 244 240 240 240 237 230 232 232 221 239 239 234 220 224 214 212 234 222 233 201 241 285 310 307 282 327 268 309 299 297 287 291 287 288 292 302 297 283 281 275

GFSMA_2pvu_pres_105.txt.gz
Presure
161 162 145 206 200 165 134 115 168 175 143 144 132 129 125 143 78 138 181 176 148 147 164 158 187 156 154 158 140 142 163 194 155 166 164 141 194 155 153 204 145 182 161
135 116 135 94 147 168 191 186 162 146 173 182 181 113 114 77 135 137 136 147 162 154 161 173 170 188 149 167 162 164 134 186 148 139 143 160 139 159 151 123 206 153 155
127 138 140 152 133 136 139 167 177 149 158 129 143 152 165 190 111 169 179 163 168 156 150 189 175 183 140 144 178 126 136 153 180 212 164 174 162 171 189 175 149 221 130
141 154 138 141 145 145 136 131 137 150 154 160 192 126 163 133 154 135 168 177 186 171 167 177 151 154 189 178 153 167 175 158 172 135 167 153 161 174 138 205 188 202 168
132 132 143 136 133 143 150 141 147 150 141 151 148 175 148 130 155 127 158 140 167 154 153 166 151 175 129 166 176 171 168 149 164 149 138 160 165 144 147 174 136 149 161
130 135 134 144 120 126 150 155 200 150 166 149 159 193 169 135 180 131 193 176 162 162 155 173 144 181 174 178 124 134 135 139 142 175 177 149 154 178 149 179 184 145 169
134 140 119 137 142 140 151 148 141 200 176 194 163 203 171 168 170 114 158 174 156 165 162 177 134 144 145 177 155 126 152 168 172 185 182 181 181 155 186 146 155 151 146
143 141 135 140 140 135 149 135 156 152 181 177 181 145 153 187 165 153 164 169 143 159 176 137 168 177 163 182 138 180 188 156 148 191 191 184 195 167 142 178 197 132 167
142 142 134 140 134 136 154 157 140 181 183 172 167 183 171 151 188 133 193 158 166 149 167 188 155 172 156 180 182 186 148 132 133 155 117 181 186 144 161 188 134 167 173
143 149 133 147 154 147 153 127 163 150 172 162 199 162 156 171 213 187 170 182 151 144 177 133 182 187 152 133 166 151 151 170 166 181 161 169 167 178 194 190 191 180 193
161 142 154 152 160 159 174 157 164 194 127 137 136 135 137 168 180 179 187 179 136 153 144 195 190 163 184 149 187 129 161 135 176 123 130 188 135 175 128 148 144 174 138
142 152 151 154 161 165 167 169 148 174 180 137 191 171 177 194 183 181 188 174 158 188 178 179 153 144 177 157 169 180 129 152 183 166 192 188 204 184 201 194 176 127 171
152 170 164 163 170 180 166 171 165 174 163 185 138 190 179 183 179 189 161 193 152 190 180 156 164 176 155 159 195 206 184 186 131 144 129 156 161 153 155 151 124 187 161
182 158 176 178 161 166 174 187 182 148 169 161 191 173 203 187 195 166 189 190 188 175 184 192 206 148 179 192 191 207 143 167 181 189 182 172 168 208 168 159 174 134 198
163 168 171 178 193 194 173 178 143 171 162 194 188 188 182 185 197 184 172 186 179 198 187 164 165 168 161 187 152 190 195 177 213 199 189 206 165 170 152 182 200 200 235
196 190 182 187 187 181 176 174 171 182 181 200 169 186 206 172 202 189 167 185 184 190 171 200 184 192 137 195 182 213 206 216 211 169 204 154 165 180 195 191 201 204 231
181 191 179 200 193 175 183 180 170 177 209 197 184 192 180 206 191 190 188 171 174 190 186 212 207 186 160 209 167 219 193 180 178 180 179 192 204 185 191 192 207 216 229
183 203 183 192 204 195 185 182 186 167 196 198 191 192 200 183 181 176 190 178 189 191 188 219 211 207 197 224 196 202 176 155 226 181 194 191 192 209 190 214 208 247 239
206 192 194 200 194 191 191 197 196 192 186 191 189 181 179 196 190 189 184 194 173 198 180 188 171 197 192 202 157 192 196 216 203 193 171 192 193 210 192 222 261 269 349
214 193 185 188 172 179 184 201 200 211 205 203 204 200 196 184 183 215 197 175 180 187 173 188 203 203 192 175 214 199 193 219 194 215 176 184 209 201 222 227 290 245 327
211 213 204 196 198 198 214 195 196 194 196 191 183 204 181 205 168 193 185 175 234 162 196 201 195 182 199 183 190 187 210 211 192 173 203 198 210 228 221 245 331 300 333
204 228 224 205 179 188 190 202 168 189 208 169 211 175 194 187 182 204 178 216 196 200 205 221 179 219 195 216 198 195 193 214 197 192 214 206 217 236 279 335 304 329 318
202 209 189 201 201 205 197 202 193 209 189 201 201 197 200 197 192 208 212 223 188 178 206 196 183 203 188 211 187 196 181 209 212 195 222 202 215 239 314 339 311 320 313
202 204 216 212 199 192 207 202 200 199 192 202 209 213 191 202 188 199 194 188 192 183 177 188 177 186 205 197 197 202 216 192 211 205 229 228 239 285 326 289 305 303 301
228 234 205 206 202 208 211 213 205 208 212 191 186 194 194 182 205 183 211 202 210 202 194 206 222 206 198 214 198 197 205 203 231 223 227 281 275 305 300 280 305 291 291
209 212 199 237 208 216 227 216 199 222 206 217 191 192 206 206 213 209 210 195 194 205 198 190 192 190 193 197 207 223 219 203 237 268 285 281 294 292 318 311 294 284 277

GFSMA_2pvu_pres_108.txt.gz
Presure
128 143 127 134 172 112 131 128 175 156 180 173 163 143 177 143 116 150 121 105 131 161 177 140 160 142 159 161 178 156 145 169 149 149 137 180 164 145 174 168 140 146 161
109 134 137 136 127 125 134 142 138 134 137 136 159 151 141 76 162 141 149 136 123 132 160 149 166 164 144 154 142 170 159 165 141 140 167 150 146 158 176 177 145 133 172
145 130 119 145 136 122 144 130 168 142 141 120 135 135 168 146 148 155 151 129 151 163 186 129 153 131 158 128 174 141 176 157 164 184 134 135 147 134 133 169 150 153 147
119 124 139 116 127 137 122 144 130 121 146 148 148 164 129 157 172 100 163 162 126 168 114 141 187 127 158 143 150 170 150 129 167 132 126 160 142 140 176 148 185 143 133
165 125 127 135 132 137 136 134 140 128 138 125 148 143 148 155 167 173 174 170 168 173 149 176 172 146 137 169 162 117 165 145 183 141 177 127 127 176 143 140 170 130 179
114 135 120 131 131 129 130 140 127 142 139 146 171 135 155 156 172 161 184 164 120 139 157 130 192 143 171 136 170 135 126 143 178 167 132 187 182 186 125 148 138 150 194
123 127 112 137 133 143 143 128 130 150 129 142 148 143 140 147 160 140 168 183 169 163 157 179 152 145 199 177 136 162 180 118 174 172 190 120 175 177 185 192 131 175 131
132 171 133 137 128 172 138 140 123 131 142 151 153 125 166 155 192 166 162 169 184 153 169 159 187 189 165 177 174 139 177 155 159 170 147 170 153 119 135 131 166 224 142
133 195 135 136 142 140 138 135 147 143 132 140 139 153 153 169 171 155 181 165 192 171 185 167 196 177 146 140 166 156 166 164 142 163 150 136 152 189 132 189 159 174 184
138 173 146 142 194 137 144 139 144 133 145 150 154 155 168 159 165 157 156 173 180 189 167 157 207 169 188 144 128 133 166 127 191 169 128 182 195 142 161 135 173 159 178
140 134 148 143 134 144 146 138 146 164 148 173 169 156 160 167 182 138 108 122 178 178 161 177 168 172 149 158 187 152 145 131 178 156 180 198 198 138 139 156 175 146 199
186 157 142 130 149 140 143 152 155 159 159 169 196 182 182 169 127 171 168 174 180 150 184 165 166 176 195 150 165 191 166 190 184 166 129 196 158 199 173 135 168 208 136
152 148 158 173 134 161 159 142 153 173 164 189 177 182 183 182 152 183 186 168 177 144 154 201 184 194 179 196 189 164 194 156 190 185 149 195 160 152 221 189 174 197 206
194 154 178 177 205 154 163 162 183 163 147 168 169 187 167 168 175 129 150 180 166 140 187 154 192 206 169 193 167 180 183 188 159 191 175 199 177 210 146 178 157 193 160
169 194 200 186 160 166 199 170 169 187 180 177 179 172 171 170 199 186 189 158 183 179 198 182 197 161 184 193 199 164 187 181 179 177 192 153 171 186 212 222 177 187 202
200 193 180 177 165 182 186 174 173 178 177 179 170 182 188 182 170 199 192 177 181 187 170 175 176 187 188 186 208 203 180 186 188 177 216 183 177 210 189 211 168 154 167
184 187 180 188 172 175 182 186 172 188 173 175 170 177 191 181 184 191 181 189 189 171 191 182 195 180 181 200 192 179 194 193 171 196 169 167 225 217 188 185 207 176 173
184 192 182 186 197 195 195 192 183 186 197 192 202 193 189 180 194 200 179 177 171 171 191 204 176 207 178 189 171 170 191 183 190 207 202 210 192 195 151 179 179 197 206
196 201 193 201 185 203 178 182 183 195 184 181 171 198 193 212 179 193 178 169 182 193 198 221 181 185 185 176 191 196 194 194 187 184 200 208 195 179 190 206 193 197 192
189 169 171 174 180 185 185 204 181 191 187 209 183 187 200 197 211 205 186 177 183 192 199 182 194 195 199 159 202 195 197 187 198 200 180 190 202 209 170 196 185 214 200
199 181 203 182 173 169 195 191 223 220 213 201 183 181 201 195 197 203 213 200 204 194 197 194 189 180 206 214 184 192 179 205 203 215 197 206 202 193 200 195 220 202 217
178 199 184 200 184 200 212 220 200 198 189 192 168 190 191 193 188 129 188 193 193 204 205 188 179 189 178 195 211 194 188 216 199 199 186 195 190 198 214 205 208 215 219
195 200 215 185 206 216 213 210 214 199 199 198 196 190 210 204 211 214 191 210 195 188 181 216 187 204 183 212 219 179 184 210 207 188 210 199 212 216 210 223 210 222 234
191 204 198 192 206 187 209 184 195 197 196 213 190 190 183 209 196 189 185 186 187 198 183 225 194 213 185 221 195 199 210 203 188 203 211 216 216 220 241 231 248 296 292
227 225 224 202 191 202 212 206 205 205 215 226 214 215 229 222 221 221 232 217 207 206 221 201 204 207 195 206 188 191 203 185 203 201 199 205 253 260 269 313 294 296 281
236 213 213 235 221 207 215 221 197 236 213 247 233 262 197 193 205 281 267 264 234 231 220 227 220 206 209 221 211 254 283 283 252 244 268 303 267 307 304 313 289 281 302

GFSMA_2pvu_pres_114.txt.gz
Presure
119 133 124 162 142 145 125 102 135 121 142 130 129 123 120 132 148 139 112 118 138 132 127 151 154 140 153 174 138 169 145 167 166 163 149 141 138 140 140 126 156 159 155
152 136 146 145 168 142 163 128 141 127 143 133 108 130 124 127 138 130 117 132 130 125 126 127 141 136 172 145 146 140 158 126 152 163 168 157 198 153 170 171 139 125 143
93 97 117 160 140 110 175 152 119 148 116 141 148 135 121 131 100 130 130 123 126 136 140 131 121 157 141 147 175 171 163 166 169 140 190 184 191 146 160 126 110 147 152
172 223 124 95 153 191 125 149 156 136 141 133 119 134 128 125 117 111 130 142 121 118 115 132 146 120 152 163 159 153 166 162 184 162 160 171 199 164 183 164 169 154 166
109 170 146 144 100 177 159 125 151 117 124 135 134 128 144 164 148 130 128 135 135 125 113 147 120 136 143 160 178 155 152 170 165 160 147 155 163 178 185 164 180 165 190
150 126 169 155 119 160 179 155 204 143 179 187 118 137 144 162 166 140 116 123 127 131 126 135 130 146 137 154 176 171 145 163 159 147 160 128 165 175 163 187 182 178 172
144 139 166 87 110 147 161 149 146 112 120 148 126 137 124 156 123 131 108 130 126 133 126 120 178 143 141 173 145 174 146 175 157 165 112 187 147 186 136 182 159 181 192
113 88 128 129 177 124 177 143 189 112 173 133 123 125 130 165 126 141 191 117 127 135 137 146 129 155 149 170 150 170 160 169 180 163 136 180 154 132 161 146 199 171 183
138 132 141 156 187 161 171 184 160 140 192 128 133 125 163 134 122 153 124 162 127 134 134 160 135 152 151 162 163 167 170 143 167 134 171 140 185 164 187 160 157 173 153
148 188 144 183 148 151 158 131 137 139 125 151 180 136 177 186 131 112 130 176 116 135 130 169 178 175 192 169 158 179 130 181 165 143 181 137 181 172 177 161 181 161 150
139 126 187 117 177 153 147 181 169 158 161 155 189 166 178 134 126 147 172 137 133 181 149 173 172 159 185 171 187 165 212 173 187 174 183 174 159 160 193 183 193 151 193
197 166 161 138 153 142 192 157 185 154 219 144 149 182 171 195 199 186 168 177 167 163 164 179 180 151 199 174 163 210 171 193 187 196 157 166 178 183 183 198 189 174 175
198 143 157 134 143 135 212 204 153 132 191 168 154 166 171 181 189 196 152 174 133 166 179 145 182 170 179 172 169 179 188 193 175 150 187 191 146 170 163 193 173 154 192
160 156 131 167 146 217 159 160 156 175 143 138 139 209 197 189 159 159 182 186 191 173 183 195 213 178 160 172 189 205 172 199 170 188 176 185 185 218 203 184 193 193 194
289 267 138 197 155 234 226 165 200 152 212 130 192 201 177 187 182 193 186 188 177 199 199 206 145 165 164 180 194 196 195 190 196 162 164 173 173 205 174 194 188 194 171
258 253 224 162 162 195 175 182 170 224 199 169 208 197 207 200 209 201 204 176 202 186 176 172 153 211 198 177 165 193 182 190 173 193 201 189 178 204 222 191 180 194 183
251 154 157 229 202 172 174 176 208 227 188 177 192 207 195 172 193 189 169 168 188 204 163 180 177 196 206 186 177 197 206 169 181 183 185 166 197 173 178 207 170 214 169
240 160 164 163 163 215 200 222 224 180 211 212 209 205 201 189 186 207 183 174 193 199 179 191 181 179 175 180 205 192 175 211 225 198 180 212 199 203 184 233 183 203 178
211 224 218 226 172 182 209 177 204 204 204 212 173 160 167 163 173 183 208 205 200 201 188 191 190 174 180 190 193 203 193 203 196 239 196 215 189 195 223 186 201 197 192
183 220 222 197 188 205 188 196 201 166 197 180 176 174 198 199 206 171 196 196 207 209 191 194 204 182 189 172 191 190 225 213 206 184 169 177 189 183 224 221 197 212 198
205 223 211 191 204 208 213 209 203 198 201 203 203 195 206 202 201 182 181 202 197 185 187 204 203 202 186 186 215 188 185 212 211 196 197 224 218 209 212 194 212 202 217
213 191 192 176 196 200 202 202 181 179 178 214 214 205 209 216 218 211 215 197 213 213 218 207 202 209 202 201 209 196 220 230 175 201 205 185 205 193 194 204 214 223 208
229 214 210 210 213 215 213 215 217 215 213 214 216 201 213 216 208 216 215 210 216 210 206 204 224 216 214 214 213 213 213 199 215 204 177 190 201 208 216 204 229 226 198
231 235 232 223 220 221 205 152 227 229 189 227 225 179 211 207 236 245 247 268 304 293 259 264 274 267 245 249 275 216 254 229 240 244 241 244 231 232 222 239 240 274 218
212 225 175 221 205 196 223 232 164 258 255 178 182 218 196 187 238 238 256 262 219 213 260 224 232 229 257 239 228 239 231 217 242 255 213 219 186 216 236 251 249 239 239
154 238 247 235 230 205 218 140 152 117 185 234 215 243 216 240 235 229 254 270 287 267 255 282 265 374 270 255 255 285 258 295 237 251 241 255 259 264 273 233 255 245 229

GFSMA_2pvu_pres_117.txt.gz
Presure
119 144 156 157 157 97 142 148 176 162 147 141 143 132 125 137 112 124 140 128 120 125 124 128 112 131 136 118 127 130 137 140 144 165 153 155 154 170 161 181 144 166 124
132 158 131 216 126 142 123 136 140 222 177 157 135 124 118 121 139 177 140 123 129 131 139 127 112 117 116 129 108 124 145 140 147 148 135 133 156 164 160 193 152 159 129
132 155 136 120 99 101 124 134 135 140 110 143 121 111 134 159 120 126 130 132 180 126 133 128 114 146 106 140 130 137 123 129 128 152 142 165 151 156 129 121 171 184 174
99 125 147 118 192 145 126 106 145 125 104 107 146 118 140 126 112 145 130 117 149 144 105 127 121 126 125 133 158 134 129 117 119 140 154 130 150 145 182 150 162 133 144
150 133 143 137 139 103 181 194 156 175 185 153 177 138 160 126 131 123 151 175 130 164 161 150 103 117 159 169 123 130 129 153 159 127 146 173 145 137 123 152 173 133 185
139 172 114 153 191 122 121 102 146 179 139 152 155 155 185 145 104 143 126 123 132 174 133 127 125 178 177 121 125 146 128 148 161 168 151 143 143 170 161 125 197 131 148
130 131 103 139 121 139 123 112 149 85 143 170 216 156 216 134 117 127 158 114 124 121 124 123 131 119 131 122 128 136 134 177 134 142 207 149 151 162 165 174 134 168 190
139 165 155 154 148 114 141 164 170 197 107 143 121 161 128 148 157 135 123 125 120 162 139 118 183 116 164 138 114 133 139 144 152 124 147 164 178 180 150 188 185 165 192
147 133 123 194 119 150 124 141 186 135 170 151 127 147 177 156 150 157 125 168 176 164 145 173 122 125 137 116 150 146 187 153 124 177 158 179 146 187 160 187 169 158 183
188 128 166 134 130 145 127 123 178 133 159 127 138 124 137 122 162 160 174 141 192 175 140 138 158 168 174 145 128 177 153 142 188 178 183 213 169 157 182 172 192 161 176
125 131 122 138 137 135 147 137 163 144 143 135 173 162 238 160 183 132 146 114 128 152 177 161 165 175 164 191 136 138 167 174 201 188 196 161 158 202 181 199 192 177 174
135 119 142 141 139 138 144 149 171 122 156 108 143 170 160 212 144 137 177 125 141 166 137 180 203 205 186 173 160 172 145 178 181 186 188 164 175 171 175 161 174 193 187
159 145 137 133 137 128 147 174 191 128 148 141 165 143 145 166 167 137 196 172 131 138 197 150 135 173 182 185 191 174 172 195 183 134 177 185 187 203 195 171 182 205 187
141 135 146 146 132 139 197 127 197 139 145 143 144 219 171 235 209 197 146 198 204 188 187 184 167 184 181 181 156 168 190 193 210 201 162 161 174 196 177 186 168 198 180
135 133 132 131 219 170 172 149 181 163 157 142 241 229 224 166 147 183 202 202 195 164 176 192 189 185 204 196 195 206 201 176 196 177 159 173 205 178 190 210 180 171 179
192 206 277 235 280 223 144 162 203 195 249 187 215 231 225 171 225 173 194 208 213 190 195 212 204 183 194 195 171 173 157 204 198 163 181 205 202 163 196 177 170 206 178
332 298 279 223 204 233 157 233 242 231 215 195 180 184 176 182 195 192 194 183 205 178 149 190 203 205 203 205 201 196 174 179 194 183 212 202 187 215 224 185 189 199 204
286 279 159 160 155 252 169 227 233 248 244 193 249 230 230 218 226 220 158 197 214 211 196 218 221 170 165 187 199 176 165 180 188 215 187 183 200 231 221 202 213 214 187
155 236 222 239 239 244 211 221 213 158 153 196 218 181 186 188 190 158 163 184 181 179 212 170 205 180 201 205 208 190 195 213 212 209 192 199 203 204 215 198 212 220 213
202 249 244 222 242 218 213 187 181 191 153 176 168 212 224 196 190 195 193 192 185 197 201 205 202 213 206 209 204 203 211 213 202 212 215 210 210 196 197 206 196 210 177
224 218 208 200 196 221 205 210 225 213 218 182 211 189 209 210 210 212 208 177 205 206 219 211 207 215 217 208 212 221 211 213 222 201 203 193 202 197 196 199 203 200 206
201 111 159 155 178 209 208 218 204 196 193 200 189 203 154 192 211 211 188 219 222 219 221 222 182 220 201 203 224 225 204 234 238 204 202 221 200 205 223 218 223 216 215
247 206 206 203 190 210 206 206 201 205 212 166 220 208 213 165 227 182 229 233 236 234 225 213 197 253 220 265 265 228 264 227 257 223 221 213 222 200 197 204 225 239 225
216 231 229 227 218 184 229 216 210 229 228 227 182 181 217 204 180 184 215 217 229 237 251 255 266 256 259 256 255 275 266 275 274 250 239 235 248 228 212 218 217 226 211
146 145 203 89 203 230 216 229 239 233 193 190 160 172 168 200 254 225 208 234 239 239 248 253 277 304 361 468 426 412 385 418 372 332 316 315 271 249 263 248 238 257 245
201 209 257 252 160 227 191 221 201 192 192 160 169 170 183 192 203 255 254 267 263 287 284 291 331 450 504 477 456 410 528 360 358 326 338 321 310 312 263 266 274 257 272

GFSMA_2pvu_pres_120.txt.gz
Presure
111 137 122 153 124 170 157 141 125 110 175 161 142 170 101 134 148 113 127 118 132 142 125 128 117 133 120 133 119 122 125 109 123 132 143 135 131 133 151 140 138 149 131
96 77 127 151 139 121 119 107 125 179 136 143 127 117 175 104 109 124 116 123 160 143 135 152 122 127 153 123 144 133 112 126 123 142 140 114 108 141 150 145 137 148 143
105 194 111 134 124 142 120 144 129 139 128 113 138 139 144 164 111 134 126 123 126 113 148 121 126 171 129 165 125 125 184 147 111 123 137 133 113 128 123 124 166 150 148
180 103 130 141 117 122 130 137 136 138 155 106 214 139 247 155 158 160 107 171 153 119 144 140 149 113 116 137 149 127 122 180 118 188 155 124 158 151 132 133 129 118 131
108 87 124 159 116 153 160 126 179 149 127 88 148 169 140 172 122 144 161 134 173 146 112 153 121 161 128 115 130 118 171 117 124 129 143 116 124 144 145 157 134 140 175
104 97 182 129 155 138 108 142 139 169 124 144 101 135 178 168 140 159 175 96 159 193 124 159 169 131 144 126 125 117 152 135 135 128 121 166 185 137 136 148 147 164 147
130 191 161 120 126 186 136 179 148 139 125 100 124 177 172 137 188 119 154 117 219 144 150 120 136 119 152 108 131 158 127 190 111 127 128 123 135 122 123 152 189 188 156
104 194 147 179 127 145 145 151 132 169 133 115 170 168 171 108 134 157 137 153 191 216 162 155 158 172 129 187 178 167 131 126 159 130 131 173 199 169 149 155 165 150 165
131 125 124 124 134 141 104 156 172 194 117 126 140 147 167 130 178 166 153 131 127 206 193 131 149 163 139 140 177 189 166 130 160 175 155 165 135 152 159 146 161 155 197
124 122 187 151 118 145 141 167 140 127 143 145 146 123 111 135 141 130 151 138 124 161 148 195 146 147 191 155 132 127 125 146 169 137 196 189 165 166 151 172 167 181 172
120 149 123 124 135 133 130 125 124 196 118 134 159 200 131 135 135 119 172 128 119 124 136 172 135 134 201 127 170 136 171 213 127 193 186 188 167 166 183 192 172 185 184
135 116 121 100 122 163 127 134 149 177 189 145 130 144 162 127 122 155 181 135 139 144 166 214 204 186 150 129 193 169 150 135 206 174 158 182 181 197 186 175 187 196 179
124 124 124 127 118 139 124 214 139 163 135 137 151 136 145 131 163 159 132 191 142 167 226 195 210 170 198 197 179 179 201 170 186 198 175 190 186 190 193 182 181 175 180
123 126 126 126 121 127 135 129 134 134 134 133 139 155 191 136 156 174 177 168 137 248 226 195 209 188 214 194 209 199 189 194 196 194 192 188 194 203 203 227 178 158 199
123 129 127 133 133 133 132 134 135 144 194 201 196 196 164 245 239 231 149 160 224 228 182 157 183 171 162 156 188 207 165 203 208 212 199 170 205 181 171 161 201 186 160
128 135 131 132 135 135 170 141 167 204 197 222 172 275 143 144 262 239 249 198 213 181 199 197 205 197 206 200 210 195 202 201 203 201 200 192 185 183 171 194 190 187 174
138 135 135 135 136 187 178 187 194 199 227 286 275 272 266 213 188 249 242 234 161 180 166 143 183 200 206 204 206 181 213 186 169 192 181 176 175 197 201 198 200 198 207
137 136 135 171 247 233 238 244 264 270 252 262 246 251 251 246 244 241 187 151 143 162 192 174 196 223 215 181 185 185 182 194 211 196 203 203 210 214 204 202 191 223 216
285 252 172 280 273 273 266 263 262 185 232 157 140 224 163 195 191 228 229 174 226 215 221 211 183 218 206 208 201 179 213 207 213 215 213 212 215 220 211 196 204 206 209
280 268 282 242 263 254 252 206 245 240 236 233 190 218 170 171 221 223 221 213 188 195 154 176 209 210 152 184 209 214 211 222 224 221 216 217 213 208 211 206 207 201 193
252 252 253 253 243 241 172 134 185 151 190 192 190 178 226 225 204 162 202 141 223 223 203 208 180 186 190 214 211 220 229 253 248 248 254 257 256 255 252 239 255 239 251
241 234 228 225 222 164 215 194 167 164 171 212 204 216 222 205 218 206 212 215 208 185 195 178 179 188 189 257 203 254 253 213 253 236 285 253 244 240 261 262 257 246 239
194 211 216 221 212 203 199 212 229 209 221 212 169 214 216 222 226 224 219 165 182 168 172 158 185 163 189 210 238 245 236 259 285 274 269 269 282 293 301 332 331 302 262
234 226 201 156 218 220 230 228 231 202 217 229 241 242 240 233 239 193 142 200 186 189 226 142 219 196 222 194 273 271 273 281 286 293 310 319 355 362 354 363 336 339 306
228 235 233 229 209 212 219 175 221 205 210 249 265 226 151 212 178 159 154 209 208 177 218 198 196 246 216 210 263 275 281 292 326 519 463 442 375 397 411 380 343 343 330
127 228 124 218 161 149 144 128 150 146 137 180 184 203 153 154 154 153 157 176 208 198 222 184 209 200 250 270 282 294 308 518 494 487 437 382 380 365 349 393 301 350 306

GFSMA_2pvu_pres_123.txt.gz
Presure
121 129 127 112 82 179 125 111 134 124 109 146 128 169 165 104 155 143 125 159 136 125 133 160 137 148 173 145 129 131 145 131 130 146 121 133 128 133 121 136 119 122 131
130 124 104 103 113 104 97 121 145 155 172 106 134 135 117 133 180 126 140 142 169 120 138 173 104 143 154 119 110 131 159 155 132 111 190 132 128 163 169 171 123 126 131
115 89 115 100 111 139 137 130 140 143 135 129 142 166 146 187 173 148 86 153 140 161 163 152 170 191 162 218 125 154 114 120 122 156 123 182 127 144 153 162 149 134 160
88 89 107 113 118 92 93 152 133 118 151 129 126 78 167 128 134 161 195 136 95 179 139 147 202 172 111 152 155 119 116 174 120 128 131 125 131 117 144 121 178 132 153
136 117 115 99 149 121 200 131 207 185 142 144 142 137 160 127 131 136 129 143 161 153 172 132 161 163 179 177 201 155 147 163 143 123 122 122 123 167 125 160 171 172 135
149 136 123 122 143 143 127 182 126 121 128 142 140 135 176 130 166 121 192 130 172 150 186 152 181 138 202 214 134 141 159 156 126 151 145 127 159 148 131 131 139 125 147
139 140 166 151 108 92 166 176 178 187 177 122 152 132 137 128 124 127 145 170 135 141 188 155 146 125 184 128 207 206 144 197 199 163 132 118 168 179 136 140 176 171 180
144 124 150 128 169 141 129 134 202 129 125 159 118 139 126 163 145 118 113 141 122 128 135 153 139 110 144 141 149 159 155 127 160 204 153 128 152 131 148 182 165 136 158
166 161 144 157 135 129 153 128 194 120 153 144 126 130 121 162 133 129 124 178 131 127 132 165 132 153 170 120 126 125 125 111 128 175 132 180 170 150 165 143 132 188 200
142 156 140 148 118 116 144 165 130 132 125 121 133 169 165 124 106 126 181 138 134 152 121 133 124 137 136 131 127 129 130 129 207 200 144 154 184 159 185 204 189 200 188
139 130 141 128 128 123 129 127 129 121 120 125 124 133 120 174 165 133 131 120 145 160 156 141 145 165 128 127 138 142 181 212 206 209 205 193 188 181 181 183 196 190 178
134 120 138 142 122 144 126 148 171 126 135 130 126 117 122 132 130 134 135 133 171 187 181 141 147 181 158 175 158 150 161 215 216 156 198 169 163 178 190 194 154 190 190
122 124 124 119 135 123 131 136 126 123 127 126 126 133 129 128 136 135 137 141 179 169 142 161 187 169 204 192 174 225 190 155 189 201 173 173 211 207 203 197 200 200 198
147 146 130 149 128 127 128 120 117 122 124 125 180 132 134 135 138 136 187 187 143 140 183 211 247 143 183 182 187 253 220 172 220 199 179 167 196 207 202 199 197 190 207
141 140 132 139 131 128 131 135 130 130 131 131 134 135 135 144 187 160 150 187 190 202 277 196 273 279 193 246 242 173 174 188 217 212 207 200 190 184 204 206 206 209 180
127 138 142 140 142 140 136 131 135 135 134 134 134 137 193 171 196 199 209 209 229 300 266 259 251 262 230 246 240 212 182 200 193 206 173 203 204 201 209 220 201 205 207
142 142 144 136 139 143 140 140 142 137 130 171 198 199 186 190 188 213 223 262 274 260 251 239 245 181 214 186 176 187 194 202 151 224 200 213 184 173 203 210 212 211 215
145 144 142 142 142 140 135 129 136 152 177 180 181 192 195 201 225 156 265 251 247 154 211 240 190 213 230 230 232 231 235 227 195 144 168 178 173 183 194 195 202 208 219
147 151 259 140 140 137 141 203 271 252 209 171 216 248 257 254 258 238 163 235 234 207 190 180 227 225 210 147 196 197 214 147 164 172 194 183 189 189 221 238 215 205 263
150 147 205 206 211 273 275 278 271 266 242 242 262 195 253 247 241 180 161 181 228 216 205 168 217 204 205 209 218 188 159 191 195 213 205 171 215 242 221 224 228 243 220
268 266 266 263 267 257 258 261 258 251 251 251 248 243 246 185 180 216 209 196 226 207 207 214 201 223 189 151 160 157 173 191 191 181 205 129 224 207 215 229 244 261 264
255 267 261 255 259 253 253 250 250 240 244 210 250 244 229 231 230 231 207 196 220 225 219 223 229 231 160 153 257 192 201 191 191 212 220 189 215 238 251 279 270 275 271
239 239 241 249 238 245 247 229 224 216 233 203 218 220 208 212 223 223 199 215 227 187 214 237 163 161 155 158 190 206 217 222 183 209 191 206 254 280 246 280 282 285 278
218 126 175 198 228 210 201 148 167 225 209 231 213 143 168 196 228 165 223 212 186 236 220 184 157 153 151 182 183 183 212 236 207 188 230 203 293 291 292 301 301 311 379
148 237 212 137 236 236 222 117 244 224 142 224 227 226 126 170 275 165 244 188 193 200 151 151 155 153 219 214 233 233 232 192 209 201 249 305 306 314 319 472 439 385 402
125 125 131 136 226 230 206 237 212 150 184 220 238 200 195 227 238 232 211 203 212 202 212 151 157 158 159 158 227 227 224 232 217 229 295 319 333 516 497 527 446 411 384

GFSMA_2pvu_pres_126.txt.gz
Presure
109 123 106 119 123 121 99 109 166 103 243 143 220 143 172 132 179 102 123 146 114 137 159 140 156 121 173 140 146 156 177 173 160 143 157 132 122 120 128 121 118 137 128
123 127 110 112 128 132 122 109 101 103 114 153 132 145 124 164 128 144 147 161 106 145 162 145 137 153 221 163 141 143 183 174 161 160 194 186 161 144 116 117 162 161 142
124 130 137 180 121 91 108 93 111 100 105 104 152 129 136 142 145 164 113 138 125 118 183 131 133 169 142 156 161 166 155 114 158 184 151 136 144 143 185 123 136 147 125
103 140 94 150 136 127 120 95 104 153 142 147 196 189 150 87 141 135 131 197 135 119 183 105 137 116 149 177 182 145 188 126 135 181 190 197 177 106 201 199 185 183 127
131 127 122 146 136 111 124 118 135 176 174 125 141 141 149 137 174 109 174 194 124 133 145 131 159 191 163 174 162 138 123 162 142 131 140 141 153 133 132 171 176 143 183
166 118 137 143 160 184 147 127 137 175 168 154 190 185 137 125 135 134 145 129 174 124 157 162 128 128 146 156 118 177 125 137 175 158 150 143 141 146 138 212 143 151 202
143 151 169 150 139 145 144 114 141 150 196 214 172 166 181 146 125 117 163 139 130 145 127 202 108 133 124 151 134 143 160 150 145 124 133 116 184 125 175 153 189 135 212
126 166 149 146 152 150 144 129 143 127 142 126 166 189 127 120 98 122 148 166 125 125 143 136 119 150 142 156 152 137 138 156 162 137 162 159 125 131 144 161 195 205 148
162 136 140 159 148 139 147 142 153 126 126 124 117 136 150 118 125 123 135 131 159 112 141 118 117 152 127 129 171 152 148 128 155 149 139 127 158 174 153 219 203 151 168
155 141 144 143 154 158 141 168 161 138 133 131 133 171 136 136 124 131 123 126 156 134 133 126 131 130 134 135 144 191 189 157 210 179 180 167 177 178 186 182 154 189 213
142 178 156 169 153 151 139 148 115 120 125 122 116 123 132 118 122 123 134 117 127 127 133 133 139 153 148 193 187 132 188 178 185 190 191 181 202 223 168 204 201 191 215
134 147 152 158 132 156 152 129 125 149 139 130 166 142 157 129 124 119 124 127 132 133 191 157 193 183 168 187 172 182 190 178 170 219 236 247 244 229 224 216 203 180 205
146 156 147 138 151 151 129 115 138 140 123 160 127 125 123 124 129 132 129 134 130 138 148 135 164 193 186 179 177 183 185 202 268 261 262 241 203 240 237 224 210 214 187
148 153 128 153 133 122 140 143 140 137 139 143 136 142 126 130 127 133 127 131 138 135 191 192 185 181 193 189 188 195 247 251 286 256 242 159 230 234 179 172 179 213 206
152 165 150 143 127 126 120 130 139 143 133 134 129 134 130 134 135 139 127 174 200 193 178 189 196 181 184 187 211 231 263 272 189 247 242 219 238 226 208 194 201 202 203
134 157 122 120 119 119 123 121 128 131 131 125 126 133 161 140 140 141 163 182 173 187 186 197 188 190 194 241 248 232 174 242 217 238 232 213 206 200 226 187 219 187 189
119 130 125 123 127 122 124 131 133 155 142 143 142 144 141 136 141 191 184 187 197 185 186 190 195 206 248 199 139 186 220 240 236 184 224 211 192 195 209 180 209 170 202
123 121 122 122 125 127 129 140 131 134 136 149 150 143 143 144 182 179 191 198 201 198 193 202 247 226 216 247 240 239 186 227 226 213 200 214 216 217 171 163 190 185 219
127 126 126 143 131 128 128 160 138 149 150 252 221 215 197 175 259 195 222 262 257 237 257 257 248 237 244 235 227 223 209 212 175 217 217 201 155 224 208 162 246 247 215
132 133 216 201 205 148 142 269 214 144 216 277 278 279 268 279 268 264 226 250 254 252 254 246 213 232 233 215 224 221 217 217 209 221 160 158 194 168 185 184 206 219 207
148 236 277 177 263 235 253 259 265 265 268 266 262 276 259 255 232 251 250 245 241 245 234 236 228 209 222 219 208 221 217 217 218 216 155 145 154 179 172 165 222 206 193
258 261 274 262 251 255 254 268 250 255 206 170 171 250 238 239 244 209 253 242 236 225 190 205 155 178 171 204 212 215 224 150 163 154 151 154 232 193 237 239 203 201 241
240 239 243 240 241 244 245 221 161 241 239 240 246 227 195 234 238 137 231 199 216 226 216 157 220 204 201 216 228 232 184 151 148 152 161 154 217 233 229 222 222 224 217
238 235 237 240 233 232 231 239 231 177 230 220 232 216 202 133 176 223 151 217 134 148 227 221 221 231 250 253 219 190 208 181 158 158 155 201 233 198 216 216 214 268 291
243 233 228 224 225 131 132 133 127 211 217 225 220 223 221 155 145 213 225 153 215 196 241 225 238 257 204 206 212 219 218 244 164 156 211 165 236 213 229 230 281 303 307
226 230 228 226 161 136 135 136 150 233 230 203 142 154 222 230 209 147 159 228 236 219 247 247 202 208 217 220 239 240 143 229 237 215 201 242 226 237 243 281 307 320 530

GFSMA_2pvu_pres_129.txt.gz
Presure
135 136 128 124 120 104 104 117 104 125 111 105 107 127 101 147 169 118 142 153 178 130 144 210 131 138 118 196 132 130 108 132 148 167 135 172 170 134 155 167 186 170 187
129 132 134 125 124 123 103 121 112 119 103 100 112 97 173 141 161 157 134 162 151 129 156 134 105 135 116 116 151 175 180 157 143 127 183 125 194 109 130 130 141 126 158
155 144 130 124 133 116 129 135 106 123 124 121 110 105 101 149 132 152 114 154 196 126 138 130 89 130 174 133 124 134 151 128 124 167 139 149 123 126 146 201 147 145 139
142 142 137 123 111 118 136 122 118 131 103 132 121 138 171 175 135 137 112 139 133 164 125 165 174 131 148 113 128 131 124 139 141 125 153 140 161 153 168 164 139 138 177
158 141 150 142 119 136 144 138 125 152 162 159 159 125 158 168 209 187 192 156 133 144 134 139 128 139 147 168 136 112 162 122 168 153 110 149 162 146 137 159 125 138 153
107 112 119 141 119 113 107 111 157 131 160 139 151 144 156 139 166 167 155 173 173 123 158 126 157 158 138 124 122 152 135 130 159 143 138 120 122 121 137 181 169 175 124
150 164 162 149 166 175 157 201 142 162 151 149 149 146 168 126 127 117 135 127 132 130 127 121 131 125 120 121 186 181 125 125 126 125 130 161 129 182 138 143 164 144 143
190 171 167 160 158 169 160 132 137 156 148 147 148 163 144 124 151 134 97 124 114 122 118 118 124 118 139 129 125 125 126 127 148 155 182 180 153 185 187 172 171 168 170
139 178 156 184 174 142 151 190 152 127 156 153 149 150 131 168 116 134 125 138 123 186 116 110 135 124 138 128 126 136 178 171 134 173 208 203 173 193 184 177 168 180 193
149 125 154 163 162 133 147 171 144 151 159 143 150 136 162 138 113 125 116 119 122 132 120 126 127 125 129 125 127 135 135 183 172 179 191 192 177 184 178 186 190 194 256
170 177 148 142 143 137 154 178 151 150 131 147 141 137 124 131 132 138 157 140 151 128 133 125 127 126 132 127 134 148 177 190 190 174 173 181 180 174 181 186 208 272 241
147 139 159 176 184 170 163 157 140 134 176 138 156 157 134 122 125 145 144 149 132 133 141 132 130 141 121 134 191 197 182 188 192 177 173 174 174 188 199 201 255 263 223
150 134 140 213 135 176 156 156 166 152 149 150 144 125 132 125 127 144 131 139 127 134 131 135 172 160 136 185 188 193 188 197 176 160 184 183 201 230 201 224 253 244 205
146 155 238 162 170 170 143 143 151 137 154 117 120 132 120 124 148 132 130 132 122 129 154 178 133 135 174 193 141 174 173 156 183 179 188 193 255 151 244 250 250 229 227
181 148 161 146 162 132 134 125 123 124 124 133 127 124 123 119 121 124 129 132 133 136 160 128 150 188 187 192 174 179 182 182 193 189 201 153 263 253 231 241 235 230 230
142 141 144 133 135 122 122 121 143 134 124 125 125 126 128 125 131 131 131 127 140 151 127 184 190 144 183 176 183 191 200 199 216 224 261 243 200 227 224 201 225 214 208
131 131 130 126 125 127 126 126 124 124 125 125 126 131 133 142 132 135 155 143 154 136 197 186 185 174 187 162 195 187 208 243 237 252 198 240 228 200 227 215 218 220 220
137 135 137 135 129 128 136 130 133 128 128 127 137 138 139 143 143 150 142 157 124 182 173 159 195 194 200 201 167 254 237 256 197 241 235 217 227 221 219 224 216 216 214
149 144 138 136 152 135 134 133 134 131 136 138 141 146 143 150 167 184 142 253 202 256 206 251 209 195 222 260 243 260 250 187 241 223 234 141 205 166 212 152 156 166 208
156 136 135 134 135 136 135 133 135 164 174 200 212 184 140 197 145 149 211 206 262 267 263 259 258 179 215 249 253 243 235 233 194 220 208 191 189 212 212 216 156 183 159
240 146 146 141 162 144 144 141 146 144 143 158 232 199 263 228 266 256 246 246 244 222 238 124 239 229 124 132 233 226 225 215 202 214 213 216 218 211 207 182 215 152 153
184 163 264 258 245 156 266 268 258 152 254 246 249 256 253 256 264 244 248 236 236 237 194 148 236 232 230 150 227 218 212 226 223 215 210 204 216 234 246 194 209 216 212
185 251 247 233 126 240 232 245 242 241 249 234 245 214 235 233 125 235 191 239 231 231 197 225 168 225 152 176 216 187 182 185 199 219 225 229 228 210 161 212 215 171 238
241 255 243 239 252 229 241 231 235 229 234 180 182 173 128 118 133 231 226 218 228 197 199 185 158 207 216 196 193 221 202 224 225 226 222 255 223 199 215 213 237 245 241
241 243 231 237 235 243 239 228 231 228 232 229 128 133 133 152 231 226 227 225 224 225 226 216 225 197 232 234 227 235 239 245 231 249 210 215 218 227 245 248 240 231 178
222 217 240 238 238 235 236 235 235 142 137 137 141 145 181 223 221 228 164 226 231 171 202 229 232 228 226 237 267 266 269 259 244 220 220 234 225 230 216 226 230 160 153

GFSMA_2pvu_pres_132.txt.gz
Presure
134 144 119 141 145 161 141 155 124 104 137 115 124 113 116 122 100 109 117 162 141 161 155 144 142 134 133 103 174 131 105 133 132 126 133 134 145 155 149 136 140 140 134
168 127 130 143 157 125 152 116 120 129 136 118 119 97 134 123 127 113 108 162 156 128 170 120 155 158 149 133 140 165 154 111 103 111 127 124 123 124 135 189 140 147 124
119 144 142 155 124 134 141 125 116 118 117 119 133 93 105 94 120 92 157 146 145 121 161 187 130 115 201 125 114 116 141 123 121 137 163 188 120 178 170 184 151 134 133
139 127 128 133 138 159 135 142 147 93 132 142 140 142 127 161 157 161 157 153 136 176 187 182 136 185 176 125 131 135 116 162 137 141 145 169 159 206 125 121 190 158 184
135 122 172 148 128 122 122 126 123 140 121 119 131 167 132 127 164 143 185 134 127 145 147 133 109 157 119 116 113 119 123 141 122 121 141 126 137 142 119 159 171 188 170
133 152 136 163 153 151 160 155 128 125 135 126 127 152 184 147 155 148 136 135 118 123 130 155 179 126 163 149 119 125 120 116 136 121 112 123 175 156 127 155 193 213 163
156 134 140 141 142 144 145 160 151 167 147 124 154 165 147 163 149 153 157 155 146 124 156 111 117 123 111 137 121 131 126 124 121 119 120 119 126 172 162 198 205 185 178
153 121 153 155 124 153 159 151 166 164 152 166 159 168 149 130 157 158 153 122 132 139 151 125 128 125 145 151 159 176 127 127 118 146 163 190 163 203 189 174 189 170 178
143 136 134 141 149 120 144 157 160 147 144 156 168 140 142 159 151 157 131 133 147 149 117 124 131 128 121 137 129 121 132 121 138 136 154 190 182 201 196 175 197 175 179
135 133 149 158 171 145 138 127 130 198 182 199 150 149 182 149 140 153 157 140 119 137 121 131 128 139 110 144 157 138 128 129 124 126 131 174 187 186 184 176 160 181 175
150 111 147 163 161 148 158 165 171 133 155 195 174 170 156 164 153 135 152 124 141 150 132 125 127 136 133 135 129 135 134 130 127 173 174 147 186 189 171 156 167 170 183
127 178 131 150 160 117 135 151 145 142 165 263 147 161 134 136 145 148 161 126 125 124 116 120 147 127 123 118 122 124 166 128 133 167 178 179 190 162 174 170 182 192 198
294 130 183 231 135 140 215 133 153 159 139 142 142 187 140 158 118 127 133 123 122 120 120 122 126 135 121 126 137 133 129 168 189 152 185 189 174 179 179 195 190 199 227
198 318 225 351 190 132 168 146 144 179 152 139 142 130 122 124 123 123 120 124 126 117 120 123 132 127 128 148 131 136 204 143 155 192 176 166 181 170 181 177 207 243 258
135 356 144 245 136 146 185 162 138 139 135 133 136 135 120 126 126 127 127 125 127 124 131 128 147 150 139 168 138 139 142 199 196 171 180 185 183 177 193 213 234 208 188
436 314 130 152 315 156 138 137 141 163 130 124 128 127 128 128 131 127 133 136 139 139 138 136 134 138 146 138 148 172 179 152 153 185 189 177 178 198 229 229 206 172 244
289 145 148 138 144 135 141 129 129 127 129 127 130 134 135 139 138 135 141 135 139 135 136 133 144 138 144 154 169 207 183 203 200 193 172 165 220 249 246 204 242 230 230
349 137 133 155 134 129 131 140 134 137 144 136 133 133 132 132 134 129 134 136 135 146 231 288 160 144 144 177 175 197 261 253 225 224 240 243 249 213 249 228 141 222 218
313 311 185 275 204 153 136 140 139 137 138 143 145 156 151 149 144 144 153 151 153 203 159 163 175 209 260 255 221 243 183 167 186 150 247 238 186 245 238 230 225 219 217
199 204 206 251 153 231 290 156 150 146 145 150 150 152 152 148 148 151 147 169 211 256 207 262 265 267 249 246 258 251 249 132 241 247 205 242 240 232 232 223 229 226 227
213 272 277 186 159 151 222 183 154 151 147 267 266 152 151 256 254 173 253 179 161 243 249 249 126 254 243 254 240 235 237 235 241 235 232 228 227 231 219 226 232 221 214
259 158 118 114 254 126 274 264 266 269 271 266 256 254 257 241 259 252 252 247 180 248 120 112 125 229 232 224 133 131 232 222 226 230 215 226 231 221 223 218 221 211 217
128 129 216 264 251 238 239 247 254 240 241 238 257 241 234 235 230 238 241 239 244 125 128 156 211 227 238 171 228 232 193 227 224 227 225 218 220 223 228 226 231 234 243
230 231 237 235 250 228 247 236 260 252 241 234 241 226 228 234 214 231 244 246 134 132 139 235 233 237 231 229 231 221 219 225 217 223 218 222 229 218 239 235 257 263 254
236 231 235 228 226 226 231 239 230 226 222 239 220 218 216 156 156 150 138 153 197 197 223 229 221 221 220 226 215 201 222 221 219 226 235 247 241 235 240 263 239 220 217
226 265 218 243 240 245 245 243 241 245 229 233 230 230 229 229 236 234 225 225 227 231 223 234 225 226 228 229 227 229 235 207 245 255 248 254 262 259 239 236 234 234 234

GFSMA_2pvu_pres_135.txt.gz
Presure
134 151 162 153 154 130 150 161 126 150 154 121 139 122 125 113 77 106 102 113 158 112 122 141 156 143 142 188 143 130 133 140 143 120 144 122 144 141 143 153 162 114 168
133 147 153 147 160 138 160 139 124 152 151 154 118 123 117 125 122 113 111 127 105 174 154 131 139 117 162 130 196 115 162 116 120 170 116 174 161 147 115 173 105 141 176
120 138 130 136 160 118 156 127 134 142 154 139 122 140 139 119 143 127 128 133 119 157 135 146 144 140 134 194 120 113 110 198 178 116 119 122 174 157 155 120 143 118 126
146 148 124 131 139 127 116 140 123 125 121 121 81 127 130 137 115 133 134 153 143 141 161 155 158 123 126 134 120 115 119 140 142 117 130 130 123 117 120 121 127 122 125
146 136 142 142 149 137 132 115 140 169 150 125 133 148 139 128 129 134 151 152 154 177 154 149 134 127 148 121 123 129 130 122 128 127 142 148 133 138 123 131 181 126 142
142 139 141 136 137 142 134 148 150 132 144 143 147 165 152 160 167 138 131 136 128 159 147 152 153 132 129 131 129 151 119 118 138 118 150 141 125 124 123 128 174 127 176
140 129 144 129 122 156 155 130 137 124 139 142 142 141 140 152 176 155 147 152 207 128 176 163 164 138 127 127 128 124 119 110 165 126 134 123 125 124 121 117 126 128 184
151 156 158 160 127 130 147 119 135 152 161 137 166 200 173 154 141 162 160 161 159 195 152 154 156 125 141 145 125 121 123 129 128 126 135 131 127 153 130 151 132 187 172
164 145 141 143 157 157 132 149 142 145 157 148 137 143 163 133 177 164 154 161 154 165 159 153 145 131 125 143 134 122 131 123 118 117 122 125 126 128 132 127 189 171 186
160 287 170 126 144 149 147 139 141 151 141 128 118 138 151 134 167 163 159 181 136 128 155 136 140 148 134 124 123 119 123 133 120 123 122 130 143 133 133 188 182 153 180
313 148 131 135 132 142 142 113 146 147 139 134 168 162 257 131 198 171 198 172 178 210 119 131 120 125 118 120 121 117 129 124 119 127 138 142 135 133 184 187 154 180 174
345 173 261 306 264 298 119 183 148 136 166 181 127 165 137 168 136 146 141 167 160 153 121 133 124 125 122 139 127 125 125 122 137 141 135 132 151 133 136 149 196 190 191
406 220 368 357 308 187 296 214 142 231 236 141 141 136 193 172 157 147 182 160 141 129 147 120 123 131 130 128 126 123 136 124 127 133 134 159 136 151 147 181 156 156 181
437 375 118 262 313 125 318 125 124 294 125 157 240 217 152 230 235 159 148 124 126 131 132 134 125 125 127 130 135 138 128 128 122 137 135 148 157 145 179 142 168 187 197
399 405 425 387 343 339 329 131 325 340 329 190 263 137 189 140 140 203 135 120 126 121 129 132 141 140 141 136 133 133 139 136 159 237 161 144 149 154 191 192 193 205 201
396 409 407 382 373 359 259 191 141 327 142 130 213 151 238 178 144 120 127 126 132 138 135 137 133 133 139 149 153 150 160 137 150 154 151 151 180 199 254 261 239 239 160
386 383 378 169 368 386 407 312 216 147 174 152 133 140 135 126 127 128 134 135 135 136 134 138 140 143 144 145 150 200 260 147 156 149 286 167 233 268 257 244 147 237 242
145 309 313 328 367 367 150 148 150 138 148 138 141 128 128 128 136 135 135 139 145 150 151 151 150 148 150 148 144 145 145 156 278 283 278 267 240 249 131 147 255 145 239
271 270 163 263 301 310 317 329 146 364 175 136 156 129 136 139 139 150 156 149 148 148 146 144 145 158 175 156 163 138 266 246 254 252 199 181 273 255 250 250 241 238 239
276 278 279 257 276 278 286 285 244 143 134 196 140 144 269 156 153 145 151 201 207 155 213 210 207 264 211 188 260 195 213 121 253 257 246 250 230 128 235 240 240 235 231
145 243 232 171 247 263 257 251 230 283 273 248 163 179 283 272 266 268 266 264 238 261 270 271 258 256 265 262 243 196 156 224 174 243 228 141 234 236 228 243 231 230 230
242 249 248 248 256 261 255 260 257 254 254 257 265 265 240 239 240 253 242 255 263 263 258 257 247 243 236 247 244 131 130 223 242 229 239 235 229 230 231 233 239 229 221
245 239 171 166 181 165 166 159 158 254 239 255 178 248 249 250 240 244 245 239 237 237 235 238 244 236 234 250 154 140 256 233 238 228 234 229 230 235 232 228 234 232 231
238 259 262 260 250 247 240 242 240 240 245 245 239 248 237 237 259 240 241 241 232 249 240 230 192 145 195 194 233 227 221 232 232 226 221 221 224 228 231 231 229 236 222
263 264 264 264 239 234 232 254 225 224 228 246 245 237 235 236 236 236 236 235 233 237 236 234 231 233 231 231 231 229 232 233 229 227 229 242 234 232 234 235 235 231 232
248 244 226 251 246 255 286 269 252 259 254 241 238 239 241 232 246 235 236 235 233 232 188 226 228 230 231 234 232 228 225 228 245 244 246 244 246 248 240 258 267 269 261